Location: Rush Road (historical)
(41.6214°N, 81.4579°W)
Time: 01:47:54
(UTC+00:00)

Daily predictions for brighter satellites

Satellite Brightness Start Highest point End
(mag) Time Altitude Azimuth Time Altitude Azimuth Time Altitude Azimuth
NOSS 3-1 (A) 4.4 01:06:49 10° NW 01:14:27 79° WSW 01:23:33 10° SSE
Cosmos 2034 Rocket 4.1 01:13:27 10° N 01:19:40 65° E 01:25:54 10° SSE
Cosmos 2344 4.4 01:12:48 10° NW 01:21:36 84° WSW 01:34:02 10° SSE
Resurs 01 Rocket 1.6 01:17:17 10° SSE 01:21:42 84° ENE 01:26:09 10° N
Meteor 1-5 Rocket 4.3 01:16:04 10° N 01:21:55 76° E 01:27:33 10° SSE
MOS 1-B 4.4 01:17:31 10° SSE 01:23:17 88° ENE 01:29:06 10° NNW
CZ-4 R/B 2.8 01:23:17 10° SSW 01:26:46 35° W 01:30:19 10° NNW
Cosmos 1943 Rocket 3.9 01:22:07 10° NW 01:27:02 32° WSW 01:31:55 10° SSW
Cosmos 1943 3.6 01:24:08 10° S 01:29:25 41° ESE 01:34:42 10° NE
USA 229 DEB 4.3 01:23:14 10° NNW 01:30:38 60° NE 01:38:36 10° SE
USA 229 4.3 01:23:20 10° NNW 01:30:44 60° NE 01:38:43 10° SE
Okean O Rocket 1.7 01:27:07 10° SSE 01:31:32 89° E 01:36:01 10° NNW
Cosmos 2221 2.5 01:28:05 10° S 01:32:20 66° E 01:36:38 10° NNE
Tsikada Rocket 4.0 01:30:08 10° S 01:36:14 66° E 01:42:26 10° NNE
Cosmos 1766 Rocket 3.7 01:39:44 10° N 01:44:10 59° E 01:48:33 10° SSE
Cosmos 2292 Rocket 4.3 01:43:46 10° S 01:50:24 83° E 01:55:29 10° N
Ariane Rocket 4.3 01:48:45 12° ESE 01:52:22 25° ENE 01:56:28 10° NNE
Lacrosse 5 rocket 4.4 01:51:51 10° NW 01:54:01 13° NNW 01:56:09 10° NNE
Cosmos 921 Rocket 3.6 01:49:57 10° SSW 01:54:22 62° WNW 01:58:50 10° N
MetOp-B 4.3 01:50:55 12° SSE 01:55:50 58° ENE 02:01:06 10° N
USA 186 4.4 01:55:15 10° SW 01:57:33 18° W 01:59:55 10° NW
Terra 2.8 01:55:42 15° ESE 01:58:55 31° ENE 02:03:03 10° N
CZ-4C R/B 3.3 01:57:31 10° NNE 02:01:24 86° E 02:05:25 10° SSW
Cosmos 1743 2.5 01:58:16 10° N 02:01:55 90° S 02:05:04 13° S
Cosmos 2056 Rocket 4.3 01:59:51 10° NNW 02:05:01 49° WSW 02:10:04 10° S
Lacrosse 5 3.9 02:03:22 10° WNW 02:07:05 20° WSW 02:10:47 10° SSW
USA 32 4.0 02:02:22 10° S 02:07:36 89° E 02:12:51 10° N
Cosmos 1452 Rocket 3.8 02:03:38 10° N 02:08:45 52° ENE 02:12:19 19° SE
USA 281 4.5 02:04:05 11° ESE 02:09:10 28° NE 02:14:34 10° N
Cosmos 1408 Rocket 4.4 02:05:56 10° N 02:10:01 34° ENE 02:12:22 20° SE
Cosmos 468 4.5 02:05:08 10° S 02:10:16 63° ESE 02:15:25 10° NNE
ATLAS 3B R/B 4.0 02:04:40 10° NW 02:11:50 40° WSW 02:18:48 10° S
USA 245 3.0 02:15:00 28° E 02:15:10 28° ENE 02:17:13 10° N
ERS-1 Rocket 3.2 02:12:14 19° SE 02:15:43 55° ENE 02:20:38 10° N
Cosmos 2297 4.5 02:10:30 10° NW 02:16:00 48° WSW 02:21:20 10° S
Okean-O 3.1 02:11:53 10° S 02:16:12 58° W 02:20:33 10° NNW
Okean 1 3.7 02:19:02 25° SE 02:20:45 40° E 02:24:24 10° NNE
USA 306 3.3 02:19:07 10° NW 02:22:48 45° NE 02:25:02 21° E
Landsat 4 3.9 02:23:41 29° SE 02:25:03 46° ENE 02:28:24 10° N
SPOT 5 2.9 02:24:20 17° S 02:27:52 70° WSW 02:32:16 10° NNW
Cosmos 1151 Rocket 4.2 02:27:19 23° ESE 02:28:17 25° E 02:31:49 10° NE
Cosmos 1726 1.5 02:27:14 10° N 02:30:22 84° E 02:31:27 37° SSE
USA 276 3.5 02:29:57 10° W 02:31:15 17° SW 02:31:15 17° SW
Cosmos 1536 2.7 02:33:31 10° N 02:37:25 70° E 02:39:00 34° SSE
Nadezhda 4 Rocket 4.3 02:34:49 23° SSE 02:38:24 49° E 02:44:22 10° NNE
Meteor 1-10 Rocket 4.2 02:32:50 10° S 02:38:35 88° WNW 02:44:14 10° N
Meteor 1-19 Rocket 4.4 02:35:32 21° SSE 02:39:27 58° E 02:45:05 10° NNE
Cosmos 1603 3.7 02:33:50 10° SSW 02:39:29 83° WNW 02:45:14 10° NNE
Cosmos 2279 Rocket 4.0 02:34:00 10° N 02:40:13 87° W 02:44:40 20° S
Cosmos 1733 3.6 02:41:18 10° N 02:44:35 38° ENE 02:45:02 37° E
ISS -3.7 02:41:27 10° WNW 02:44:48 66° SW 02:45:24 52° SSE
Cosmos 1500 Rocket 3.6 02:40:46 10° N 02:45:02 60° E 02:46:32 37° SE
Cosmos 2369 Rocket 3.4 02:40:35 10° NW 02:45:38 36° WSW 02:49:52 14° SSW
Lacrosse 4 Rocket 3.5 02:45:52 10° N 02:48:27 16° NE 02:50:11 13° ENE
Cosmos 1302 Rocket 4.4 02:46:07 10° N 02:51:11 50° ENE 02:53:16 32° ESE
Meteor 1-11 Rocket 3.7 02:46:03 10° N 02:51:46 90° W 02:55:03 27° S
Cosmos 1331 Rocket 4.1 02:46:52 10° NNW 02:52:05 73° WSW 02:54:42 29° S
Cosmos 1340 2.8 02:52:13 10° N 02:55:29 44° ENE 02:55:37 44° E
Cosmos 1805 Rocket 3.6 02:51:17 10° N 02:55:40 65° E 02:57:00 42° SE
Meteor 2-17 Rocket 4.4 02:53:41 26° S 02:57:08 68° E 03:03:08 10° NNE
Cosmos 1110 Rocket 4.5 02:55:03 10° NNW 03:00:15 56° WSW 03:02:59 27° S
Landsat 5 3.2 02:58:47 10° NNE 03:02:33 64° ESE 03:03:05 56° SE
Cosmos 220 Rocket 4.1 03:06:54 49° SE 03:07:20 51° ESE 03:11:32 10° NNE
Spot 2 Rocket 3.7 03:05:36 30° S 03:08:00 63° WSW 03:13:01 10° NNW
Sich 1 3.0 03:06:15 10° N 03:10:39 84° W 03:11:50 48° S
Cosmos 2026 Rocket 4.2 03:15:41 37° SE 03:17:49 52° E 03:23:50 10° NNE
SPOT 3 Rocket 3.9 03:18:33 32° SSW 03:20:44 56° W 03:25:48 10° NNW
Cosmos 1818 3.5 03:22:49 41° S 03:24:35 64° ESE 03:30:01 10° NE
Cosmos 1340 Rocket 3.5 03:23:54 33° SW 03:25:17 50° WNW 03:29:11 10° N
MetOp-A 3.7 03:25:19 55° SSE 03:26:20 90° WSW 03:31:15 10° NNW
IRIDIUM 103 4.4 03:22:50 10° N 03:28:00 60° E 03:29:04 49° SE
Ariane Rocket 4.0 03:28:53 26° SSW 03:31:03 40° W 03:35:50 10° NNW
USA 59 Rocket 0.4 03:27:23 10° NNW 03:31:31 66° NE 03:32:45 48° ESE
NOSS 3-3 (A) 3.6 03:30:01 43° S 03:31:46 67° ESE 03:37:48 10° NE
NOSS 2-1 (E) 3.9 03:29:31 10° NNW 03:33:39 69° NE 03:34:50 50° ESE
Cosmos 1626 3.3 03:35:49 30° NE 03:35:49 30° NE 03:37:43 10° NNE
Terra 3.4 03:34:25 20° SW 03:36:28 27° W 03:40:29 10° NW
Cosmos 1743 Rocket 4.4 03:34:00 10° NNW 03:38:12 45° W 03:39:15 37° SW
Cosmos 1697 Rocket 4.3 03:33:46 10° N 03:38:18 24° NE 03:40:35 19° E
Meteor 2-4 Rocket 3.7 03:39:24 44° S 03:41:24 87° E 03:47:24 10° N
GEOS 3 Rocket 3.9 03:37:35 10° NNE 03:42:43 64° NW 03:47:29 11° SW
ARIANE 5 R/B 3.1 03:42:35 43° ENE 03:42:43 43° ENE 03:46:49 10° N
NOSS 2-1 (D) 3.7 03:42:09 10° NW 03:46:19 88° SW 03:47:01 67° SSE
IRIDIUM 106 4.2 03:41:05 10° N 03:46:20 88° E 03:47:19 60° S
Cosmos 1980 Rocket 4.5 03:43:07 10° NNE 03:46:21 15° NE 03:49:34 10° E
Cosmos 1066 Rocket 4.4 03:47:33 50° SE 03:48:30 56° E 03:54:13 10° NNE
Cosmos 1607 4.4 03:49:23 42° ESE 03:49:36 42° ESE 03:55:38 10° NE
Cosmos 1553 Rocket 4.4 03:46:45 10° N 03:52:35 47° ENE 03:53:52 41° ESE
USA 281 3.4 03:50:57 41° S 03:53:12 63° WSW 03:59:45 10° NNW
PSLV R/B 4.4 03:52:18 10° NNE 03:55:33 48° NE 03:55:33 48° NE
USA 306 4.5 03:53:03 10° WNW 03:55:07 22° W 03:55:07 22° W
Cosmos 1269 Rocket 3.9 03:55:33 61° SSW 03:56:30 88° ESE 04:01:48 10° NNE
NOSS 3-3 (C) 3.8 04:00:13 35° SW 04:02:35 78° NW 04:08:49 10° NNE
Cosmos 1975 3.4 04:00:20 10° NNW 04:03:51 50° WNW 04:03:51 50° WNW
Meteor 1-18 Rocket 4.5 04:06:26 44° SW 04:08:18 69° W 04:14:14 10° N
Cosmos 1092 Rocket 4.3 04:07:01 38° SW 04:09:23 63° W 04:15:41 10° N
Spot 4 4.4 04:11:06 43° ENE 04:11:18 44° ENE 04:15:48 10° N
Cosmos 1328 Rocket 4.0 04:13:00 54° W 04:13:08 54° W 04:17:23 10° N
Cosmos 1766 4.0 04:14:53 10° N 04:17:41 48° N 04:17:41 48° N
Cosmos 1515 Rocket 3.8 04:19:50 63° NNE 04:19:50 63° NNE 04:23:32 10° N
Cosmos 1833 Rocket 2.5 04:21:57 71° SSW 04:22:36 87° ESE 04:28:15 10° NNE
NOSS 2-1 (C) 4.5 04:18:48 10° NW 04:22:33 43° WSW 04:22:33 43° WSW
H-2A R/B 2.8 04:26:14 64° N 04:26:14 64° N 04:29:54 10° N
Cosmos 2266 Rocket 4.2 04:26:06 48° ESE 04:26:45 50° E 04:32:44 10° NNE
Lacrosse 4 Rocket 2.3 04:23:01 10° NW 04:26:06 43° WNW 04:26:06 43° WNW
Cosmos 2082 Rocket 3.5 04:28:31 26° E 04:28:31 26° E 04:32:26 10° NE
Cosmos 1470 4.0 04:25:33 10° N 04:27:58 35° NNE 04:27:58 35° NNE
H-2A R/B 4.1 04:26:41 10° NE 04:28:47 19° ENE 04:28:47 19° ENE
Cosmos 2360 4.1 04:24:42 10° NNW 04:30:27 85° ENE 04:31:02 73° SE
Cosmos 1470 Rocket 3.9 04:28:32 10° NNW 04:32:29 60° WNW 04:32:29 60° WNW
Cosmos 1633 Rocket 4.3 04:35:45 10° NNW 04:39:29 32° W 04:39:29 32° W
Cosmos 1656 4.2 04:38:31 10° NW 04:43:39 43° WSW 04:43:43 43° WSW
SL-08 ROCKET BODY 4.5 04:44:08 59° ESE 04:44:46 63° E 04:50:52 10° NNE
BREEZE-M DEB (TANK) 4.4 04:27:27 10° WSW 04:48:03 71° NNW 04:52:46 10° ENE
GP-B 4.5 04:45:35 10° NNE 04:48:45 29° ENE 04:48:45 29° ENE
Cosmos 1674 4.4 04:51:43 29° NNW 04:51:43 29° NNW 04:53:47 10° N
ALOS 2 2.9 04:55:55 63° N 04:55:55 63° N 04:59:39 10° NNW
PSLV R/B 4.5 04:51:17 10° NNE 04:54:39 42° ENE 04:54:39 42° ENE
Cosmos 1933 Rocket 4.1 04:53:43 10° NNW 04:57:17 54° NW 04:57:17 54° NW
Cosmos 1140 Rocket 3.7 04:58:59 59° W 04:59:24 61° WNW 05:04:35 10° NNE
Cosmos 44 Rocket 3.4 04:55:21 10° NNW 04:59:46 71° NNW 04:59:46 71° NNW
Cosmos 1417 Rocket 4.4 04:55:20 10° N 05:01:39 79° W 05:02:26 68° SSW
ATLAS CENTAUR R/B 4.3 04:49:14 10° NW 05:03:19 87° SW 05:08:04 39° SE
SL-24 R/B 4.5 05:00:20 10° NNE 05:04:45 72° ENE 05:04:45 72° ENE
Lacrosse 5 rocket 3.8 05:10:44 10° NNW 05:13:51 20° NNE 05:16:23 12° ENE
Meteor 1-12 Rocket 4.4 05:12:40 10° N 05:18:35 66° ENE 05:19:16 61° ESE
Meteor 2-10 Rocket 3.9 05:13:58 10° N 05:19:45 62° ENE 05:20:17 59° ESE
USA 59 Rocket 2.6 05:18:10 10° WNW 05:19:18 14° W 05:19:18 14° W
Cosmos 1697 Rocket 3.0 05:17:07 10° NNW 05:22:17 52° W 05:22:17 52° W
USA 267 3.1 05:17:18 10° NE 05:23:51 77° SE 05:24:57 62° SSW
Cosmos 1707 Rocket 4.2 05:30:08 53° NE 05:30:08 53° NE 05:33:43 10° NNE
S3M 4.2 05:23:31 10° NNW 05:29:46 58° W 05:30:33 54° WSW
Cosmos 407 Rocket 4.1 05:30:12 47° W 05:30:43 49° WNW 05:35:49 10° N
In-Cosmos 22 4.5 05:30:34 56° WSW 05:31:08 59° WNW 05:36:48 10° N
Cosmos 1980 Rocket 2.0 05:25:29 10° NNW 05:31:14 85° ENE 05:31:32 80° SE
Cosmos 468 Rocket 4.5 05:26:37 10° N 05:31:47 51° ENE 05:32:20 49° E
Cosmos 676 Rocket 4.3 05:33:05 56° E 05:33:05 56° E 05:37:59 10° NNE
Cosmos 1763 Rocket 3.4 05:30:18 10° NNW 05:35:36 83° ENE 05:35:36 83° ENE
Cosmos 1954 Rocket 4.0 05:36:36 75° E 05:36:36 75° E 05:41:43 10° NNE
Cosmos 1190 Rocket 4.0 05:40:32 73° WNW 05:40:35 73° WNW 05:45:54 10° NNE
SL-8 R/B 3.9 05:37:18 10° WNW 05:41:38 65° NNW 05:41:38 65° NNW
NOSS 3-4 (A) 3.8 05:35:04 10° NW 05:42:09 76° WSW 05:43:57 56° S
NOSS 3-4 (C) 3.8 05:35:10 10° NW 05:42:15 77° WSW 05:44:05 55° S
Cosmos 2315 Rocket 4.0 05:36:02 10° NNW 05:42:17 68° W 05:43:01 63° SW
Cosmos 2251 Rocket 4.3 05:43:26 39° W 05:44:05 41° WNW 05:49:04 10° N
Cosmos 540 Rocket 3.5 05:39:17 10° NNW 05:44:27 72° ENE 05:44:31 72° ENE
Meteor 1-23 Rocket 4.2 05:44:32 64° W 05:44:52 65° WNW 05:50:29 10° N
Cosmos 1300 4.3 05:45:02 10° N 05:46:59 31° N 05:46:59 31° N
Cosmos 2369 3.5 05:44:13 10° NNW 05:49:58 88° WSW 05:50:17 80° SSE
COSMOS 2406 3.1 05:50:36 72° WSW 05:51:05 78° WNW 05:56:53 10° NNE
USA 234 4.1 05:51:54 10° ESE 05:58:10 50° NNE 06:04:26 10° NW
CZ-2D R/B 4.5 05:56:55 10° ENE 05:58:59 12° E 06:00:44 11° ESE
Meteor 1-16 Rocket 4.4 05:54:16 10° N 05:59:59 65° ENE 06:00:57 56° SE
Cosmos 1356 Rocket 4.1 06:01:34 50° N 06:01:34 50° N 06:04:43 10° N
Helios 1A Rocket 4.2 06:00:56 32° ENE 06:00:56 32° ENE 06:04:10 10° N
Cosmos 2228 Rocket 3.9 06:01:24 45° NW 06:01:24 45° NW 06:05:13 10° N
Meteor 2-20 4.3 05:56:30 10° NNW 06:02:38 72° W 06:03:20 65° SW
Resurs 1-4 Rocket 4.3 06:00:44 10° ENE 06:03:18 14° E 06:04:45 12° ESE
H-2A R/B 3.2 06:01:47 10° N 06:05:35 35° WNW 06:05:35 35° WNW
Cosmos 1244 Rocket 4.3 06:04:58 68° SSW 06:05:49 86° W 06:12:04 10° N
SL-16 R/B 3.3 06:00:41 10° N 06:06:01 40° ENE 06:08:52 24° ESE
Cosmos 1733 Rocket 3.8 06:04:40 10° NNW 06:07:59 44° NW 06:07:59 44° NW
Cosmos 2082 Rocket 2.9 06:10:20 39° W 06:11:32 44° WNW 06:17:00 10° NNE
Cosmos 1346 Rocket 4.0 06:17:08 10° NNW 06:19:39 36° NW 06:19:39 36° NW
Cosmos 2360 Rocket 4.0 06:18:32 10° N 06:23:23 28° NE 06:28:13 10° ESE
Cosmos 2237 4.3 06:27:10 10° NNW 06:32:56 73° ENE 06:34:43 45° SE
Nimbus 7 Rocket 4.5 06:27:47 10° N 06:33:47 71° WNW 06:35:04 55° SW
Cosmos 1386 Rocket 4.5 06:32:23 57° S 06:33:52 90° E 06:40:18 10° N
Genesis I 4.4 06:35:11 34° NE 06:35:11 34° NE 06:37:24 10° NE
SL-4 R/B 3.7 06:36:16 25° E 06:36:16 25° E 06:38:43 10° ENE
Cosmos 1709 Rocket 4.4 06:34:03 39° SE 06:36:05 55° E 06:42:17 10° NNE
Cosmos 1850 Rocket 3.8 06:37:36 72° S 06:38:09 83° ESE 06:43:26 10° NNE
Cosmos 1703 Rocket 3.5 06:38:59 80° NNW 06:38:59 80° NNW 06:43:15 10° N
CZ-2C R/B 4.3 06:35:45 12° ESE 06:39:31 28° ENE 06:43:51 10° N
Cosmos 968 Rocket 3.6 06:39:52 54° SE 06:40:23 57° ESE 06:45:25 10° NNE
Cosmos 1455 3.2 06:36:55 10° N 06:39:14 39° N 06:39:14 39° N
IDEFIX/ARIANE 42P 3.4 06:36:52 10° NNE 06:41:49 40° E 06:43:04 34° SE
ADEOS II 4.0 06:38:28 10° NE 06:42:12 19° E 06:44:29 15° SE
Cosmos 1741 Rocket 3.8 06:44:42 70° SSW 06:45:20 89° WNW 06:50:37 10° NNE
Okean 1-7 3.7 06:46:11 42° WNW 06:46:11 42° WNW 06:49:58 10° N
Cosmos 1953 3.0 06:42:53 10° NNW 06:45:50 46° NW 06:45:50 46° NW
Cosmos 2278 3.6 06:44:10 10° NNW 06:49:52 72° WSW 06:50:51 59° SSW
Cosmos 2242 Rocket 4.2 06:50:01 44° ESE 06:50:34 47° E 06:54:53 10° NNE
Lacrosse 5 rocket 2.3 06:48:34 10° NW 06:51:08 37° NW 06:51:08 37° NW
Cosmos 1300 Rocket 3.9 06:49:22 10° N 06:53:36 56° E 06:54:13 51° ESE
Cosmos 841 Rocket 3.5 06:50:23 10° NNW 06:55:33 61° WSW 06:55:52 59° WSW
Cosmos 1242 Rocket 4.0 06:57:30 28° NNE 06:57:30 28° NNE 06:59:04 10° NNE
BREEZE-M R/B 3.5 06:55:17 50° S 06:56:26 63° SE 07:08:19 10° ENE
SL-27 R/B 4.2 06:58:45 24° NE 06:58:45 24° NE 07:00:10 10° NNE
NPP 4.0 06:52:39 10° NNE 06:57:58 55° E 06:59:31 41° SSE
SL-16 R/B 4.4 06:54:15 10° ESE 06:59:22 27° ENE 07:04:28 10° N
Cosmos 2322 Rocket 2.3 06:57:49 10° NNW 07:03:30 72° ENE 07:06:50 25° SE
SJ 16-02 1.3 07:04:16 65° SE 07:04:35 68° ESE 07:08:52 10° NNE
USA 267 4.3 07:00:35 10° NE 07:06:32 39° NNW 07:12:17 11° W
H-2A R/B 3.5 07:02:55 10° NNE 07:06:53 63° ESE 07:07:05 61° ESE
Cosmos 2333 Rocket 2.8 07:02:35 10° NNW 07:08:13 55° ENE 07:13:50 10° SE
CZ-2C R/B 4.1 07:06:56 10° NNE 07:12:27 44° E 07:15:11 26° SSE
EXPRESS MD2 4.0 07:13:07 35° N 07:13:07 35° N 07:16:14 10° NE
Cosmos 1703 3.7 07:13:53 48° ESE 07:14:11 49° E 07:17:49 10° NNE
Cosmos 1980 Rocket 4.3 07:11:59 10° WNW 07:13:16 12° W 07:13:16 12° W
ATLAS CENTAUR R/B 3.5 07:16:51 12° ESE 07:17:07 12° ESE 07:18:36 10° E
Cosmos 1745 Rocket 4.4 07:17:48 37° WSW 07:19:40 47° WNW 07:25:43 10° N
DELTA 2 R/B (1) 3.6 07:21:00 39° WSW 07:22:41 55° SSW 07:28:06 10° ESE
Cosmos 1833 4.1 07:26:58 42° SSW 07:28:59 89° WNW 07:34:40 10° NNE
Cosmos 1814 Rocket 3.9 07:25:14 10° NNW 07:30:29 86° WSW 07:33:18 29° SSE
MSX 3.7 07:24:54 10° NNE 07:30:39 88° WNW 07:33:04 37° SSW
Tiangong -0.7 07:37:18 28° ESE 07:37:18 28° ESE 07:39:08 10° E
Meteor 2-5 Rocket 3.8 07:34:10 32° S 07:37:03 83° E 07:43:02 10° NNE
Cosmos 1782 Rocket 4.3 07:34:54 10° NNW 07:38:52 35° W 07:39:01 35° W
CZ-2D R/B 2.1 07:34:10 10° NNE 07:39:39 85° WNW 07:42:01 35° SSW
Cosmos 2074 Rocket 4.4 07:35:26 20° SSE 07:39:40 58° E 07:45:45 10° NNE
USA 234 3.3 07:34:42 10° SSE 07:41:06 55° SW 07:47:31 10° NW
Cosmos 1408 3.4 07:42:28 29° NW 07:42:28 29° NW 07:44:34 10° NNW
Resurs 1-4 Rocket 2.1 07:38:22 10° N 07:43:37 74° WNW 07:45:48 36° SSW
SL-16 R/B 3.0 07:45:04 10° NW 07:49:55 30° WSW 07:50:39 29° WSW
CRYOSAT 2 4.4 07:48:12 10° N 07:53:03 65° W 07:55:06 34° SSW
Cosmos 2219 Rocket 2.3 07:50:56 10° NNW 07:56:37 76° ENE 08:02:16 10° SSE
Cosmos 1570 Rocket 4.3 07:52:39 10° NNW 07:57:58 69° ENE 08:03:16 10° SSE
Cosmos 2098 Rocket 3.9 07:54:16 10° NNW 07:59:50 67° W 08:04:14 21° S
Cosmos 2333 4.1 07:55:03 10° NNW 08:00:47 74° WSW 08:06:31 10° SSE
Cosmos 2184 Rocket 4.0 07:57:01 21° S 08:01:26 83° E 08:07:45 10° N
SL-24 R/B 4.3 08:01:11 27° S 08:03:48 67° W 08:08:36 10° N
Cosmos 2360 Rocket 2.5 08:02:09 10° NW 08:07:33 45° WSW 08:11:01 21° S
Envisat 4.5 08:03:13 10° NNE 08:07:46 32° E 08:12:17 10° SSE
ALOS 2.5 08:03:14 10° NNE 08:07:51 67° ESE 08:11:00 20° S
Cosmos 1025 Rocket 4.3 08:06:02 10° SSE 08:10:03 38° E 08:14:07 10° NNE
Nadezhda 3 Rocket 4.4 08:05:21 10° N 08:11:42 67° E 08:17:57 10° SSE
CZ-4C R/B 4.2 08:11:27 10° ESE 08:12:53 11° ESE 08:14:24 10° E
Cosmos 2154 Rocket 4.0 08:08:27 16° S 08:13:27 84° E 08:19:41 10° N
SL-4 R/B 2.7 08:11:01 22° W 08:13:34 52° NNW 08:17:55 10° NE
FENGYUN 3A 3.7 08:09:16 10° N 08:14:35 67° WNW 08:17:59 23° SSW
Cosmos 405 Rocket 2.5 08:11:35 10° N 08:15:13 87° E 08:18:00 17° S
RESURS DK-1 2.8 08:11:43 10° NW 08:15:31 39° WSW 08:17:02 28° SSW
COSMOS 2428 3.5 08:12:44 10° NNW 08:18:19 54° ENE 08:23:52 10° SE
CZ-2C R/B 3.2 08:17:13 24° SW 08:19:37 36° W 08:24:24 10° NNW
UNK 4.0 08:15:59 10° SSE 08:20:35 70° ENE 08:25:13 10° N
IDEFIX/ARIANE 42P 3.9 08:16:46 10° N 08:21:06 27° WNW 08:23:50 17° WSW
ADEOS II 2.4 08:17:00 10° N 08:22:06 52° WNW 08:25:23 21° SW
Cosmos 1328 4.0 08:21:41 16° S 08:24:35 65° E 08:28:23 10° NNE
COSMOS 2455 4.1 08:20:51 10° S 08:26:14 36° ESE 08:31:39 10° NE
Cosmos 2221 Rocket 3.8 08:24:47 22° SSW 08:27:33 57° W 08:32:01 10° N
ATLAS 2AS CENTAUR R/B 2.6 08:23:31 10° NW 08:30:17 76° WSW 08:36:51 10° SSE
Cosmos 1825 2.0 08:30:29 25° SSW 08:32:16 57° W 08:35:40 10° N
Cosmos 1674 Rocket 4.0 08:30:22 21° SW 08:32:57 45° WNW 08:37:13 10° N
Cosmos 2151 Rocket 3.9 08:29:17 10° NNW 08:33:33 46° W 08:36:46 16° SSW
Sich 1 Rocket 3.9 08:31:26 10° NNW 08:35:45 47° W 08:39:14 15° SSW
Meteor 1-28 Rocket 3.8 08:35:57 21° SSW 08:37:41 34° W 08:40:58 10° NNW
SL-16 R/B 2.7 08:36:30 10° S 08:42:33 52° W 08:48:41 10° NNW
SJ 16-02 3.6 08:41:39 10° W 08:43:25 12° WNW 08:45:10 10° NNW
Okean 2 Rocket 3.7 08:41:29 10° NNW 08:45:31 37° W 08:48:58 13° SSW
Cosmos 2322 Rocket 3.7 08:43:35 10° WNW 08:46:50 16° W 08:48:33 14° WSW
IRAS Rocket 4.4 08:41:28 10° N 08:46:51 57° WNW 08:51:38 13° SW
SAR-Lupe-4 4.3 08:44:23 10° N 08:47:43 38° WNW 08:50:06 17° SW
METEOR-M 4.2 08:44:06 10° NNE 08:49:28 80° ESE 08:54:49 10° S
Cosmos 2327 Rocket 4.5 08:44:28 10° S 08:50:39 82° W 08:56:47 10° N
CZ-2C R/B 4.5 08:47:09 10° N 08:51:57 28° WNW 08:56:12 12° WSW
Cosmos 2333 Rocket 3.4 08:47:48 10° NW 08:52:02 22° W 08:55:45 12° SW
Cosmos 2297 Rocket 2.7 08:47:36 10° S 08:53:06 57° ESE 08:58:38 10° NNE
Geosat 4.4 08:49:23 10° SE 08:54:20 67° ENE 08:59:20 10° NNW
ATLAS CENTAUR R/B 1.5 08:51:51 16° WSW 08:54:21 44° NW 08:57:46 10° NNE
Cosmos 1892 4.0 08:57:27 14° WSW 08:59:29 22° WNW 09:02:17 10° NNW
Okean 1 Rocket 3.6 08:59:08 10° NNW 09:03:07 37° W 09:07:05 10° SSW
Cosmos 1503 Rocket 4.1 08:58:16 10° SSW 09:03:37 74° WNW 09:09:00 10° NNE
CZ-2C R/B 2.4 09:01:51 10° NNE 09:06:35 81° ESE 09:11:10 10° S
OPS 8737 4.1 09:06:39 10° NW 09:09:36 88° WSW 09:13:00 10° SSE
H-2A R/B 3.8 09:07:01 10° NNE 09:11:57 34° E 09:16:49 10° SSE
Tiangong -2.2 09:09:35 10° W 09:12:40 88° SSE 09:15:44 10° E
Meteor 1-21 Rocket 4.5 09:10:42 10° SSW 09:16:33 63° WNW 09:22:24 10° N
SL-8 Rocket 4.0 09:10:48 10° S 09:16:57 86° W 09:23:09 10° N
CZ-2D R/B 4.2 09:16:34 10° NNW 09:18:46 13° WNW 09:20:59 10° W
Resurs 1-4 Rocket 4.3 09:21:59 10° NW 09:22:28 10° NW 09:22:56 10° WNW
SL-24 R/B - RUBIN 2 4.5 09:16:02 10° NW 09:22:40 83° WSW 09:28:42 10° SSE
